Appleton, MN

1:58 AM CST on December 09, 2019 (GMT -0600)
Appleton Municipal

Weather History for KAQP - November, 2019

Change the Weather History Date:

Thursday, November 14, 2019

  Actual Average Record
Temperature  
Mean Temperature 26 °F -  
Max Temperature 44 °F 37 °F 66 °F (2015)
Min Temperature 8 °F 21 °F -5 °F (2014)
Degree Days  
Heating Degree Days 39    
Moisture  
Dew Point 20 °F    
Average Humidity 74    
Maximum Humidity 93    
Minimum Humidity 49    
Precipitation  
Precipitation 0.00 in - - ()
Sea Level Pressure  
Sea Level Pressure 30.19 in    
Wind  
Wind Speed 5 mph ()    
Max Wind Speed 15 mph    
Max Gust Speed 17 mph    
Visibility 10.0 miles    
Events Snow    
Averages and records for this station are not official NWS values.
T = Trace of Precipitation, MM = Missing Value Source: Averaged Metar Reports

Daily Weather History Graph

Daily Weather History Graph

Search for Another Location

Airport or City:

Astronomy

Nov. 14, 2019 Rise Set
Actual Time 7:20 AM CST 4:55 PM CST
Civil Twilight 6:48 AM CST 5:27 PM CST
Nautical Twilight 6:13 AM CST 6:03 PM CST
Astronomical Twilight 5:38 AM CST 6:37 PM CST
Moon 6:38 PM CST (11/14) 9:20 AM CST (11/14)
Length of Visible Light 10h 38m
Length of Day
9h 34m
Waning Gibbous, 95% of the Moon is Illuminated
Nov 14
Waning Gibbous
Nov 19
Last Quarter
Nov 26
New
Dec 4
First Quarter
Dec 11
Full

Hourly Weather History & Observations

Time (CST) Temp. Windchill Dew Point Humidity Pressure Visibility Wind Dir Wind Speed Gust Speed Precip Events Conditions
12:11 AM 21.2 °F 9.5 °F 14.0 °F 74% 30.17 in 10.0 mi North 11.5 mph - N/A Snow Light Snow
12:31 AM 21.2 °F 8.3 °F 12.2 °F 68% 30.17 in 10.0 mi North 13.8 mph - N/A   Overcast
12:51 AM 21.2 °F 9.5 °F 12.2 °F 68% 30.18 in 10.0 mi North 11.5 mph 17.3 mph N/A   Overcast
1:11 AM 21.2 °F 10.1 °F 12.2 °F 68% 30.19 in 10.0 mi NNW 10.4 mph - N/A   Overcast
1:30 AM 21.2 °F 12.6 °F 14.0 °F 74% 30.19 in 10.0 mi NNW 6.9 mph - N/A   Overcast
1:51 AM 21.2 °F 16.4 °F 14.0 °F 74% 30.19 in 10.0 mi North 3.5 mph - N/A Snow Light Snow
2:11 AM 21.2 °F - 14.0 °F 74% 30.20 in 10.0 mi Calm Calm - N/A   Overcast
2:52 AM 21.2 °F - 14.0 °F 74% 30.20 in 10.0 mi Calm Calm - N/A   Overcast
3:11 AM 21.2 °F 11.7 °F 14.0 °F 74% 30.22 in 10.0 mi NW 8.1 mph - N/A   Overcast
3:31 AM 21.2 °F - 14.0 °F 74% 30.22 in 10.0 mi Calm Calm - N/A   Overcast
3:51 AM 21.2 °F 11.7 °F 14.0 °F 74% 30.22 in 10.0 mi NW 8.1 mph - N/A   Overcast
4:31 AM 15.8 °F - 10.4 °F 79% 30.23 in 10.0 mi Calm Calm - N/A   Mostly Cloudy
4:51 AM 12.2 °F - 8.6 °F 85% 30.22 in 10.0 mi Calm Calm - N/A   Scattered Clouds
5:11 AM 12.2 °F - 8.6 °F 85% 30.23 in 10.0 mi Calm Calm - N/A   Clear
5:51 AM 12.2 °F - 8.6 °F 85% 30.23 in 10.0 mi Calm Calm - N/A   Clear
6:10 AM 8.6 °F - 5.0 °F 85% 30.23 in 10.0 mi Calm Calm - N/A   Clear
6:30 AM 8.6 °F - 5.0 °F 85% 30.24 in 10.0 mi Calm Calm - N/A   Clear
6:51 AM 8.6 °F - 6.8 °F 92% 30.25 in 10.0 mi Calm Calm - N/A   Clear
7:11 AM 8.6 °F - 5.0 °F 85% 30.24 in 10.0 mi Calm Calm - N/A   Clear
7:31 AM 10.4 °F - 8.6 °F 92% 30.24 in 10.0 mi Calm Calm - N/A   Clear
7:51 AM 12.2 °F - 8.6 °F 85% 30.24 in 10.0 mi Calm Calm - N/A   Clear
8:11 AM 15.8 °F - 10.4 °F 79% 30.23 in 10.0 mi Calm Calm - N/A   Clear
8:31 AM 15.8 °F - 10.4 °F 79% 30.25 in 10.0 mi Calm Calm - N/A   Clear
8:51 AM 17.6 °F - 12.2 °F 79% 30.25 in 10.0 mi Calm Calm - N/A   Clear
9:11 AM 19.4 °F 10.4 °F 14.0 °F 80% 30.25 in 10.0 mi WSW 6.9 mph - N/A   Clear
9:30 AM 19.4 °F 10.4 °F 14.0 °F 80% 30.24 in 10.0 mi WSW 6.9 mph - N/A   Clear
9:51 AM 21.2 °F 12.6 °F 14.0 °F 74% 30.24 in 10.0 mi WSW 6.9 mph - N/A   Clear
10:11 AM 23.0 °F - 14.0 °F 68% 30.23 in 10.0 mi Calm Calm - N/A   Clear
10:31 AM 26.6 °F 21.2 °F 15.8 °F 64% 30.22 in 10.0 mi South 4.6 mph - N/A   Clear
10:51 AM 26.6 °F 20.0 °F 15.8 °F 64% 30.23 in 10.0 mi SW 5.8 mph - N/A   Clear
11:11 AM 28.4 °F 21.2 °F 15.8 °F 59% 30.22 in 10.0 mi SW 6.9 mph - N/A   Clear
11:31 AM 30.2 °F 23.4 °F 17.6 °F 60% 30.22 in 10.0 mi SSW 6.9 mph - N/A   Mostly Cloudy
11:51 AM 30.2 °F 23.4 °F 19.4 °F 64% 30.21 in 10.0 mi SW 6.9 mph - N/A   Overcast
12:11 PM 33.8 °F 26.4 °F 19.4 °F 56% 30.20 in 10.0 mi SSW 9.2 mph - N/A   Overcast
12:31 PM 35.6 °F 29.9 °F 21.2 °F 56% 30.19 in 10.0 mi SSW 6.9 mph - N/A   Overcast
12:51 PM 35.6 °F 28.0 °F 21.2 °F 56% 30.18 in 10.0 mi SSW 10.4 mph - N/A   Overcast
1:11 PM 37.4 °F 34.9 °F 23.0 °F 56% 30.16 in 10.0 mi SW 3.5 mph - N/A   Overcast
1:31 PM 37.4 °F 28.5 °F 21.2 °F 52% 30.15 in 10.0 mi SW 15.0 mph - N/A   Overcast
1:51 PM 39.2 °F 31.6 °F 23.0 °F 52% 30.14 in 10.0 mi SW 12.7 mph 16.1 mph N/A   Overcast
2:12 PM 41.0 °F 34.3 °F 24.8 °F 53% 30.13 in 10.0 mi SW 11.5 mph 17.3 mph N/A   Overcast
2:31 PM 42.8 °F 35.4 °F 24.8 °F 49% 30.13 in 10.0 mi SW 15.0 mph - N/A   Mostly Cloudy
2:51 PM 42.8 °F 35.8 °F 26.6 °F 53% 30.13 in 10.0 mi SW 13.8 mph - N/A   Scattered Clouds
3:11 PM 44.6 °F 38.1 °F 28.4 °F 53% 30.12 in 10.0 mi SW 13.8 mph - N/A   Clear
3:31 PM 44.6 °F 38.8 °F 28.4 °F 53% 30.12 in 10.0 mi SW 11.5 mph - N/A   Clear
3:51 PM 44.6 °F 39.2 °F 28.4 °F 53% 30.12 in 10.0 mi WSW 10.4 mph - N/A   Clear
4:10 PM 44.6 °F 39.7 °F 30.2 °F 57% 30.12 in 10.0 mi SW 9.2 mph - N/A   Clear
4:32 PM 42.8 °F 38.0 °F 30.2 °F 61% 30.12 in 10.0 mi WSW 8.1 mph - N/A   Clear
4:50 PM 39.2 °F - 28.4 °F 65% 30.13 in 10.0 mi Calm Calm - N/A   Clear
5:11 PM 37.4 °F - 28.4 °F 70% 30.13 in 10.0 mi Calm Calm - N/A   Clear
5:31 PM 37.4 °F - 28.4 °F 70% 30.13 in 10.0 mi Calm Calm - N/A   Clear
5:51 PM 37.4 °F - 30.2 °F 75% 30.13 in 10.0 mi Calm Calm - N/A   Clear
6:10 PM 37.4 °F - 30.2 °F 75% 30.14 in 10.0 mi Calm Calm - N/A   Clear
6:31 PM 35.6 °F - 30.2 °F 81% 30.14 in 10.0 mi Calm Calm - N/A   Clear
6:51 PM 35.6 °F 28.6 °F 28.4 °F 75% 30.15 in 10.0 mi WSW 9.2 mph - N/A   Clear
7:10 PM 33.8 °F 29.6 °F 28.4 °F 81% 30.15 in 10.0 mi West 4.6 mph - N/A   Clear
7:30 PM 30.2 °F - 26.6 °F 86% 30.15 in 10.0 mi Calm Calm - N/A   Clear
7:50 PM 32.0 °F 25.6 °F 28.4 °F 87% 30.16 in 10.0 mi WSW 6.9 mph - N/A   Clear
8:10 PM 33.8 °F 27.0 °F 28.4 °F 81% 30.16 in 10.0 mi WSW 8.1 mph - N/A   Clear
8:51 PM 33.8 °F 27.0 °F 30.2 °F 87% 30.16 in 10.0 mi WSW 8.1 mph - N/A   Clear
9:10 PM 33.8 °F 27.0 °F 28.4 °F 81% 30.17 in 10.0 mi WSW 8.1 mph - N/A   Clear
9:30 PM 32.0 °F - 28.4 °F 87% 30.18 in 10.0 mi Calm Calm - N/A   Clear
9:51 PM 30.2 °F - 26.6 °F 86% 30.18 in 10.0 mi Calm Calm - N/A   Clear
10:10 PM 30.2 °F - 28.4 °F 93% 30.18 in 10.0 mi Calm Calm - N/A   Clear
10:30 PM 30.2 °F - 28.4 °F 93% 30.18 in 10.0 mi Calm Calm - N/A   Clear
10:50 PM 30.2 °F - 28.4 °F 93% 30.18 in 10.0 mi Calm Calm - N/A   Clear
11:10 PM 30.2 °F - 28.4 °F 93% 30.19 in 10.0 mi Calm Calm - N/A   Clear
11:31 PM 30.2 °F - 28.4 °F 93% 30.19 in 10.0 mi Calm Calm - N/A   Clear
11:51 PM 30.2 °F - 28.4 °F 93% 30.20 in 10.0 mi Calm Calm - N/A   Clear